User: anonymous   Login
Location: Boca do Mato
(22.9085°S, 43.2930°W)
Time: 01:48:20
(UTC+00:00)
Language:

EPKM - Orbit

View from above orbital plane
View from above orbital plane
View from above satellite
View from above satellite

Ground track
Ground track

The orbit data is extracted from the following two-line orbital elements,

1 23725U 95064C   20272.48203483 +.00001681 +00000-0 +35447-3 0  9990
2 23725 025.8494 045.0372 5642747 347.1283 002.9232 04.58445732349755
Epoch (UTC): 28 September 2020 11:34:07
Eccentricity: 0.5642747
inclination: 25.8494°
perigee height: 291 km
apogee height: 17565 km
right ascension of ascending node: 45.0372°
argument of perigee: 347.1283°
revolutions per day: 4.58445732
mean anomaly at epoch: 2.9232°
orbit number at epoch: 34975

The dashed part of the orbit path shows where the satellite is in the earth's shadow,  

DLR